,,,PA_Meas_PMT16A,,PR_Meas_QMR101_102,,RH_Meas_QMH101,,SR_Meas_QMS101,,TA_Meas_QMH101,,GenWind,,GenWind,
date,time,status,PA,status,PR,status,RH,status,SR,status,TA,status,DirAvg,status,SpdAvg,
2009-07-01, 00:00:04,VALID,1005.24,VALID,0,VALID,94.827,VALID,0,VALID,23.6044,VALID,69,VALID,0,
2009-07-01, 00:01:04,VALID,1005.23,VALID,0,VALID,94.8194,VALID,0,VALID,23.6257,VALID,69,VALID,0,
2009-07-01, 00:02:04,VALID,1005.22,VALID,0,VALID,94.8346,VALID,0,VALID,23.6062,VALID,69,VALID,0.259766,
2009-07-01, 00:03:04,VALID,1005.2,VALID,0,VALID,94.8346,VALID,0,VALID,23.6044,VALID,69,VALID,0,
2009-07-01, 00:04:04,VALID,1005.2,VALID,0,VALID,94.8194,VALID,0,VALID,23.6062,VALID,69,VALID,0,
2009-07-01, 00:05:04,VALID,1005.2,VALID,0,VALID,94.8117,VALID,0,VALID,23.6044,VALID,69,VALID,0.0933594,
2009-07-01, 00:06:04,VALID,1005.2,VALID,0,VALID,94.827,VALID,0,VALID,23.6044,VALID,69,VALID,0,
2009-07-01, 00:07:04,VALID,1005.2,VALID,0,VALID,94.8117,VALID,0,VALID,23.6044,VALID,69,VALID,0,
2009-07-01, 00:08:04,VALID,1005.19,VALID,0,VALID,94.8499,VALID,0,VALID,23.6434,VALID,69,VALID,0,
2009-07-01, 00:09:04,VALID,1005.18,VALID,0,VALID,94.8499,VALID,0,VALID,23.6628,VALID,69,VALID,0,
2009-07-01, 00:10:04,VALID,1005.19,VALID,0,VALID,94.8499,VALID,0,VALID,23.6628,VALID,69,VALID,0,
2009-07-01, 00:11:04,VALID,1005.17,VALID,0,VALID,94.8499,VALID,0,VALID,23.6434,VALID,69,VALID,0,
2009-07-01, 00:12:04,VALID,1005.17,VALID,0,VALID,94.827,VALID,0,VALID,23.6239,VALID,69,VALID,0,
2009-07-01, 00:13:04,VALID,1005.15,VALID,0,VALID,94.8194,VALID,0,VALID,23.6239,VALID,69,VALID,0,
2009-07-01, 00:14:04,VALID,1005.15,VALID,0,VALID,94.8422,VALID,0,VALID,23.6646,VALID,69,VALID,0,
2009-07-01, 00:15:04,VALID,1005.14,VALID,0,VALID,94.8499,VALID,0,VALID,23.6841,VALID,69,VALID,0,
2009-07-01, 00:16:04,VALID,1005.13,VALID,0,VALID,94.8422,VALID,0,VALID,23.6628,VALID,69,VALID,0.248828,
2009-07-01, 00:17:04,VALID,1005.13,VALID,0,VALID,94.8346,VALID,0,VALID,23.6823,VALID,69,VALID,0.0773437,
2009-07-01, 00:18:04,VALID,1005.14,VALID,0,VALID,94.8194,VALID,0,VALID,23.7035,VALID,69,VALID,0.08125,
2009-07-01, 00:19:04,VALID,1005.12,VALID,0,VALID,94.7965,VALID,0,VALID,23.6434,VALID,69,VALID,0.209375,
2009-07-01, 00:20:04,VALID,1005.1,VALID,0,VALID,94.7888,VALID,0,VALID,23.6257,VALID,69,VALID,0,
2009-07-01, 00:21:04,VALID,1005.1,VALID,0,VALID,94.7583,VALID,0,VALID,23.6239,VALID,69,VALID,0.0394531,
2009-07-01, 00:22:04,VALID,1005.08,VALID,0,VALID,94.7736,VALID,0,VALID,23.6452,VALID,69,VALID,0,
2009-07-01, 00:23:04,VALID,1005.09,VALID,0,VALID,94.7736,VALID,0,VALID,23.6044,VALID,69,VALID,0.124609,
2009-07-01, 00:24:04,VALID,1005.08,VALID,0,VALID,94.7278,VALID,0,VALID,23.5655,VALID,69,VALID,0.255078,
2009-07-01, 00:25:04,VALID,1005.08,VALID,0,VALID,94.682,VALID,0,VALID,23.5266,VALID,69,VALID,0.370313,
2009-07-01, 00:26:04,VALID,1005.08,VALID,0,VALID,94.6744,VALID,0,VALID,23.5266,VALID,69,VALID,0.391797,
2009-07-01, 00:27:04,VALID,1005.06,VALID,0,VALID,94.6973,VALID,0,VALID,23.5673,VALID,39,VALID,0.461719,
2009-07-01, 00:28:04,VALID,1005.05,VALID,0,VALID,94.7431,VALID,0,VALID,23.585,VALID,39,VALID,0.477344,
2009-07-01, 00:29:04,VALID,1005.04,VALID,0,VALID,94.7431,VALID,0,VALID,23.6044,VALID,17,VALID,0.44375,
2009-07-01, 00:30:04,VALID,1005.04,VALID,0,VALID,94.8041,VALID,0,VALID,23.6452,VALID,6,VALID,0.424609,
2009-07-01, 00:31:04,VALID,1005.02,VALID,0,VALID,94.7812,VALID,0,VALID,23.546,VALID,6,VALID,0.242188,
2009-07-01, 00:32:04,VALID,1005,VALID,0,VALID,94.7812,VALID,0,VALID,23.5478,VALID,6,VALID,0.245312,
2009-07-01, 00:33:04,VALID,1004.98,VALID,0,VALID,94.7812,VALID,0,VALID,23.5655,VALID,6,VALID,0.195703,
2009-07-01, 00:34:04,VALID,1004.98,VALID,0,VALID,94.8041,VALID,0,VALID,23.6257,VALID,6,VALID,0.143359,
2009-07-01, 00:35:04,VALID,1004.97,VALID,0,VALID,94.8117,VALID,0,VALID,23.6257,VALID,6,VALID,0.144531,
2009-07-01, 00:36:04,VALID,1004.91,VALID,0,VALID,94.7812,VALID,0,VALID,23.5478,VALID,6,VALID,0.191797,
2009-07-01, 00:37:04,VALID,1004.89,VALID,0,VALID,94.7354,VALID,0,VALID,23.4877,VALID,6,VALID,0,
2009-07-01, 00:38:04,VALID,1004.91,VALID,0,VALID,94.766,VALID,0,VALID,23.4877,VALID,6,VALID,0,
2009-07-01, 00:39:04,VALID,1004.92,VALID,0,VALID,94.7125,VALID,0,VALID,23.4682,VALID,6,VALID,0.09375,
2009-07-01, 00:40:04,VALID,1004.9,VALID,0,VALID,94.6973,VALID,0,VALID,23.4293,VALID,6,VALID,0.206641,
2009-07-01, 00:41:04,VALID,1004.91,VALID,0,VALID,94.6668,VALID,0,VALID,23.3921,VALID,6,VALID,0.146484,
2009-07-01, 00:42:04,VALID,1004.9,VALID,0,VALID,94.7278,VALID,0,VALID,23.4293,VALID,6,VALID,0.111719,
2009-07-01, 00:43:04,VALID,1004.89,VALID,0,VALID,94.7049,VALID,0,VALID,23.4098,VALID,6,VALID,0.30625,
2009-07-01, 00:44:04,VALID,1004.9,VALID,0,VALID,94.7125,VALID,0,VALID,23.4098,VALID,6,VALID,0.135937,
2009-07-01, 00:45:04,VALID,1004.93,VALID,0,VALID,94.682,VALID,0,VALID,23.3709,VALID,6,VALID,0.0046875,
2009-07-01, 00:46:04,VALID,1004.89,VALID,0,VALID,94.6439,VALID,0,VALID,23.3727,VALID,6,VALID,0.0242187,
2009-07-01, 00:47:04,VALID,1004.89,VALID,0,VALID,94.6057,VALID,0,VALID,23.3532,VALID,6,VALID,0,
2009-07-01, 00:48:04,VALID,1004.91,VALID,0,VALID,94.6515,VALID,0,VALID,23.3709,VALID,6,VALID,0.113281,
2009-07-01, 00:49:04,VALID,1004.89,VALID,0,VALID,94.6515,VALID,0,VALID,23.3904,VALID,6,VALID,0,
2009-07-01, 00:50:04,VALID,1004.89,VALID,0,VALID,94.6439,VALID,0,VALID,23.3709,VALID,6,VALID,0.153906,
2009-07-01, 00:51:04,VALID,1004.89,VALID,0,VALID,94.6668,VALID,0,VALID,23.4311,VALID,6,VALID,0.000390625,
2009-07-01, 00:52:04,VALID,1004.88,VALID,0,VALID,94.6897,VALID,0,VALID,23.4293,VALID,6,VALID,0.255078,
2009-07-01, 00:53:04,VALID,1004.87,VALID,0,VALID,94.6973,VALID,0,VALID,23.4293,VALID,6,VALID,0.4375,
2009-07-01, 00:54:04,VALID,1004.89,VALID,0,VALID,94.6973,VALID,0,VALID,23.5089,VALID,6,VALID,0.478906,
2009-07-01, 00:55:04,VALID,1004.87,VALID,0,VALID,94.7431,VALID,0,VALID,23.5478,VALID,6,VALID,0.290625,
2009-07-01, 00:56:04,VALID,1004.88,VALID,0,VALID,94.766,VALID,0,VALID,23.585,VALID,6,VALID,0.503125,
2009-07-01, 00:57:04,VALID,1004.91,VALID,0,VALID,94.7965,VALID,0,VALID,23.6239,VALID,6,VALID,0.287109,
2009-07-01, 00:58:04,VALID,1004.89,VALID,0,VALID,94.827,VALID,0,VALID,23.7035,VALID,6,VALID,0.294141,
2009-07-01, 00:59:04,VALID,1004.88,VALID,0,VALID,94.8346,VALID,0,VALID,23.7407,VALID,6,VALID,0.203906,
2009-07-01, 01:00:04,VALID,1004.84,VALID,0,VALID,94.8575,VALID,0,VALID,23.8009,VALID,6,VALID,0.179297,
2009-07-01, 01:01:04,VALID,1004.84,VALID,0,VALID,94.8728,VALID,0,VALID,23.8593,VALID,6,VALID,0.410547,
2009-07-01, 01:02:04,VALID,1004.8,VALID,0,VALID,94.8651,VALID,0,VALID,23.8982,VALID,6,VALID,0.0898438,
2009-07-01, 01:03:04,VALID,1004.8,VALID,0,VALID,94.8651,VALID,0,VALID,23.8769,VALID,6,VALID,0.155859,
2009-07-01, 01:04:04,VALID,1004.76,VALID,0,VALID,94.8194,VALID,0,VALID,23.9159,VALID,6,VALID,0.369531,
2009-07-01, 01:05:04,VALID,1004.75,VALID,0,VALID,94.7965,VALID,0,VALID,23.9159,VALID,6,VALID,0.0589844,
2009-07-01, 01:06:04,VALID,1004.76,VALID,0,VALID,94.7583,VALID,0,VALID,23.9159,VALID,300,VALID,0.476563,
2009-07-01, 01:07:04,VALID,1004.74,VALID,0,VALID,94.7049,VALID,0,VALID,23.9159,VALID,279,VALID,0.126172,
2009-07-01, 01:08:04,VALID,1004.71,VALID,0,VALID,94.6363,VALID,0,VALID,23.8964,VALID,279,VALID,0,
2009-07-01, 01:09:04,VALID,1004.71,VALID,0,VALID,94.5447,VALID,0,VALID,23.8964,VALID,279,VALID,0.0992187,
2009-07-01, 01:10:04,VALID,1004.7,VALID,0,VALID,94.4989,VALID,0,VALID,23.9159,VALID,279,VALID,0,
2009-07-01, 01:11:04,VALID,1004.7,VALID,0,VALID,94.4608,VALID,0,VALID,23.9159,VALID,279,VALID,0,
2009-07-01, 01:12:04,VALID,1004.69,VALID,0,VALID,94.4379,VALID,0,VALID,23.9159,VALID,279,VALID,0.00429688,
2009-07-01, 01:13:04,VALID,1004.68,VALID,0,VALID,94.4074,VALID,0,VALID,23.9371,VALID,279,VALID,0.204297,
2009-07-01, 01:14:04,VALID,1004.67,VALID,0,VALID,94.3921,VALID,0,VALID,23.9566,VALID,345,VALID,0.448438,
2009-07-01, 01:15:04,VALID,1004.68,VALID,0,VALID,94.4074,VALID,0,VALID,23.9742,VALID,345,VALID,0.301562,
2009-07-01, 01:16:04,VALID,1004.66,VALID,0,VALID,94.4303,VALID,0,VALID,23.9937,VALID,346,VALID,0.541797,
2009-07-01, 01:17:04,VALID,1004.65,VALID,0,VALID,94.3998,VALID,0,VALID,23.9937,VALID,347,VALID,0.454297,
2009-07-01, 01:18:04,VALID,1004.68,VALID,0,VALID,94.3387,VALID,0,VALID,23.9937,VALID,347,VALID,0.271484,
2009-07-01, 01:19:04,VALID,1004.66,VALID,0,VALID,94.2777,VALID,0,VALID,24.0132,VALID,347,VALID,0.265625,
2009-07-01, 01:20:04,VALID,1004.64,VALID,0,VALID,94.2014,VALID,0,VALID,24.0132,VALID,347,VALID,0.396094,
2009-07-01, 01:21:04,VALID,1004.65,VALID,0,VALID,94.1785,VALID,0,VALID,24.0345,VALID,347,VALID,0.28125,
2009-07-01, 01:22:04,VALID,1004.62,VALID,0,VALID,94.1251,VALID,0,VALID,24.0345,VALID,347,VALID,0.330859,
2009-07-01, 01:23:04,VALID,1004.61,VALID,0,VALID,94.0717,VALID,0,VALID,24.0326,VALID,347,VALID,0.426562,
2009-07-01, 01:24:04,VALID,1004.6,VALID,0,VALID,93.9725,VALID,0,VALID,24.0734,VALID,347,VALID,0.342578,
2009-07-01, 01:25:04,VALID,1004.58,VALID,0,VALID,93.9115,VALID,0,VALID,24.0521,VALID,347,VALID,0.392578,
2009-07-01, 01:26:04,VALID,1004.57,VALID,0,VALID,93.8581,VALID,0,VALID,24.0734,VALID,347,VALID,0.514453,
2009-07-01, 01:27:04,VALID,1004.57,VALID,0,VALID,93.8276,VALID,0,VALID,24.0716,VALID,346,VALID,0.533594,
2009-07-01, 01:28:04,VALID,1004.58,VALID,0,VALID,93.7589,VALID,0,VALID,24.1123,VALID,346,VALID,0.223047,
2009-07-01, 01:29:04,VALID,1004.55,VALID,0,VALID,93.6903,VALID,0,VALID,24.091,VALID,346,VALID,0.465234,
2009-07-01, 01:30:04,VALID,1004.6,VALID,0,VALID,93.6521,VALID,0,VALID,24.1105,VALID,346,VALID,0.260156,
2009-07-01, 01:31:04,VALID,1004.57,VALID,0,VALID,93.5758,VALID,0,VALID,24.1105,VALID,346,VALID,0.544922,
2009-07-01, 01:32:04,VALID,1004.57,VALID,0,VALID,93.5224,VALID,0,VALID,24.091,VALID,348,VALID,0.580859,
2009-07-01, 01:33:04,VALID,1004.58,VALID,0,VALID,93.4843,VALID,0,VALID,24.1318,VALID,349,VALID,0.509766,
2009-07-01, 01:34:04,VALID,1004.56,VALID,0,VALID,93.408,VALID,0,VALID,24.091,VALID,349,VALID,0.249609,
2009-07-01, 01:35:04,VALID,1004.58,VALID,0,VALID,93.3699,VALID,0,VALID,24.0716,VALID,349,VALID,0.478906,
2009-07-01, 01:36:04,VALID,1004.57,VALID,0,VALID,93.3775,VALID,0,VALID,24.0929,VALID,349,VALID,0.228906,
2009-07-01, 01:37:04,VALID,1004.56,VALID,0,VALID,93.408,VALID,0,VALID,24.0716,VALID,346,VALID,0.460938,
2009-07-01, 01:38:04,VALID,1004.59,VALID,0,VALID,93.3928,VALID,0,VALID,24.0716,VALID,346,VALID,0.442578,
2009-07-01, 01:39:04,VALID,1004.57,VALID,0,VALID,93.3699,VALID,0,VALID,24.091,VALID,346,VALID,0.478516,
2009-07-01, 01:40:04,VALID,1004.59,VALID,0,VALID,93.3928,VALID,0,VALID,24.1123,VALID,346,VALID,0.332031,
2009-07-01, 01:41:04,VALID,1004.56,VALID,0,VALID,93.347,VALID,0,VALID,24.0716,VALID,353,VALID,0.712109,
2009-07-01, 01:42:04,VALID,1004.57,VALID,0,VALID,93.3317,VALID,0,VALID,24.091,VALID,6,VALID,0.612109,
2009-07-01, 01:43:04,VALID,1004.59,VALID,0,VALID,93.2783,VALID,0,VALID,24.091,VALID,355,VALID,0.428516,
2009-07-01, 01:44:04,VALID,1004.53,VALID,0,VALID,93.2249,VALID,0,VALID,24.0929,VALID,355,VALID,0.619922,
2009-07-01, 01:45:04,VALID,1004.59,VALID,0,VALID,93.2173,VALID,0,VALID,24.1123,VALID,354,VALID,0.627344,
2009-07-01, 01:46:04,VALID,1004.58,VALID,0,VALID,93.2097,VALID,0,VALID,24.1105,VALID,347,VALID,0.382031,
2009-07-01, 01:47:04,VALID,1004.56,VALID,0,VALID,93.141,VALID,0,VALID,24.13,VALID,350,VALID,0.482031,
2009-07-01, 01:48:04,VALID,1004.6,VALID,0,VALID,93.1105,VALID,0,VALID,24.1513,VALID,351,VALID,0.406641,
2009-07-01, 01:49:04,VALID,1004.6,VALID,0,VALID,93.0571,VALID,0,VALID,24.13,VALID,351,VALID,0.284766,
2009-07-01, 01:50:04,VALID,1004.61,VALID,0,VALID,93.0723,VALID,0,VALID,24.1105,VALID,351,VALID,0.309375,
2009-07-01, 01:51:04,VALID,1004.62,VALID,0,VALID,93.0342,VALID,0,VALID,24.1318,VALID,351,VALID,0.021875,
2009-07-01, 01:52:04,VALID,1004.57,VALID,0,VALID,93.0189,VALID,0,VALID,24.1318,VALID,351,VALID,0.241406,
2009-07-01, 01:53:04,VALID,1004.58,VALID,0,VALID,93.1257,VALID,0,VALID,24.1513,VALID,350,VALID,0.351172,
2009-07-01, 01:54:04,VALID,1004.54,VALID,0,VALID,93.0952,VALID,0,VALID,24.1494,VALID,351,VALID,0.196484,
2009-07-01, 01:55:04,VALID,1004.53,VALID,0,VALID,93.1029,VALID,0.100563,VALID,24.1689,VALID,351,VALID,0.255859,
2009-07-01, 01:56:04,VALID,1004.52,VALID,0,VALID,93.0037,VALID,0,VALID,24.1884,VALID,351,VALID,0.00429688,
2009-07-01, 01:57:04,VALID,1004.52,VALID,0,VALID,92.8664,VALID,0,VALID,24.1494,VALID,351,VALID,0,
2009-07-01, 01:58:04,VALID,1004.51,VALID,0,VALID,92.6451,VALID,0,VALID,24.1123,VALID,351,VALID,0.29375,
2009-07-01, 01:59:04,VALID,1004.49,VALID,0,VALID,92.5078,VALID,0,VALID,24.0326,VALID,350,VALID,0.409766,
2009-07-01, 02:00:04,VALID,1004.48,VALID,0,VALID,92.5612,VALID,0,VALID,23.9937,VALID,216,VALID,0.395703,
2009-07-01, 02:01:04,VALID,1004.51,VALID,0,VALID,92.5688,VALID,0,VALID,23.9353,VALID,216,VALID,0,
2009-07-01, 02:02:04,VALID,1004.48,VALID,0,VALID,92.6375,VALID,0,VALID,23.8769,VALID,216,VALID,0.112109,
2009-07-01, 02:03:04,VALID,1004.46,VALID,0,VALID,92.7519,VALID,0,VALID,23.838,VALID,216,VALID,0,
2009-07-01, 02:04:04,VALID,1004.49,VALID,0,VALID,92.8969,VALID,0,VALID,23.7991,VALID,216,VALID,0.197656,
2009-07-01, 02:05:04,VALID,1004.44,VALID,0,VALID,92.9961,VALID,0,VALID,23.8009,VALID,216,VALID,0.2875,
2009-07-01, 02:06:04,VALID,1004.43,VALID,0,VALID,93.0647,VALID,0,VALID,23.7814,VALID,216,VALID,0.259375,
2009-07-01, 02:07:04,VALID,1004.47,VALID,0,VALID,93.1257,VALID,0,VALID,23.7212,VALID,216,VALID,0,
2009-07-01, 02:08:04,VALID,1004.41,VALID,0,VALID,93.1639,VALID,0,VALID,23.7035,VALID,216,VALID,0,
2009-07-01, 02:09:04,VALID,1004.42,VALID,0,VALID,93.2173,VALID,0,VALID,23.6434,VALID,216,VALID,0,
2009-07-01, 02:10:04,VALID,1004.4,VALID,0,VALID,93.2402,VALID,0,VALID,23.6452,VALID,216,VALID,0,
2009-07-01, 02:11:04,VALID,1004.37,VALID,0,VALID,93.3088,VALID,0,VALID,23.6062,VALID,216,VALID,0.0539063,
2009-07-01, 02:12:04,VALID,1004.41,VALID,0,VALID,93.3622,VALID,0,VALID,23.5655,VALID,216,VALID,0,
2009-07-01, 02:13:04,VALID,1004.37,VALID,0,VALID,93.4309,VALID,0,VALID,23.5673,VALID,216,VALID,0,
2009-07-01, 02:14:04,VALID,1004.37,VALID,0,VALID,93.5224,VALID,0,VALID,23.5071,VALID,216,VALID,0,
2009-07-01, 02:15:04,VALID,1004.36,VALID,0,VALID,93.6064,VALID,0,VALID,23.5071,VALID,216,VALID,0,
2009-07-01, 02:16:04,VALID,1004.35,VALID,0,VALID,93.7055,VALID,0,VALID,23.4877,VALID,216,VALID,0,
2009-07-01, 02:17:04,VALID,1004.36,VALID,0,VALID,93.8429,VALID,0,VALID,23.4877,VALID,216,VALID,0.225781,
2009-07-01, 02:18:04,VALID,1004.37,VALID,0,VALID,93.8963,VALID,0,VALID,23.5089,VALID,216,VALID,0.257031,
2009-07-01, 02:19:04,VALID,1004.36,VALID,0,VALID,93.9115,VALID,0,VALID,23.4877,VALID,216,VALID,0.0730469,
2009-07-01, 02:20:04,VALID,1004.37,VALID,0,VALID,93.8963,VALID,0.100563,VALID,23.4487,VALID,216,VALID,0,
2009-07-01, 02:21:04,VALID,1004.4,VALID,0,VALID,93.9115,VALID,0,VALID,23.4311,VALID,216,VALID,0,
2009-07-01, 02:22:04,VALID,1004.39,VALID,0,VALID,93.9954,VALID,0,VALID,23.4116,VALID,216,VALID,0,
2009-07-01, 02:23:04,VALID,1004.41,VALID,0,VALID,94.0107,VALID,0,VALID,23.3904,VALID,216,VALID,0.00429688,
2009-07-01, 02:24:04,VALID,1004.38,VALID,0,VALID,94.0336,VALID,0,VALID,23.3709,VALID,216,VALID,0,
2009-07-01, 02:25:04,VALID,1004.38,VALID,0,VALID,94.0641,VALID,0.100563,VALID,23.3514,VALID,216,VALID,0,
2009-07-01, 02:26:04,VALID,1004.4,VALID,0,VALID,94.0641,VALID,0,VALID,23.332,VALID,216,VALID,0,
2009-07-01, 02:27:04,VALID,1004.42,VALID,0,VALID,94.0565,VALID,0,VALID,23.3143,VALID,216,VALID,0.0800781,
2009-07-01, 02:28:04,VALID,1004.4,VALID,0,VALID,94.0565,VALID,0,VALID,23.2541,VALID,216,VALID,0.264844,
2009-07-01, 02:29:04,VALID,1004.43,VALID,0,VALID,94.0488,VALID,0,VALID,23.2152,VALID,216,VALID,0.0121094,
2009-07-01, 02:30:04,VALID,1004.45,VALID,0,VALID,94.1175,VALID,0,VALID,23.2364,VALID,216,VALID,0,
2009-07-01, 02:31:04,VALID,1004.41,VALID,0,VALID,94.2396,VALID,0,VALID,23.2559,VALID,216,VALID,0.296094,
2009-07-01, 02:32:04,VALID,1004.41,VALID,0,VALID,94.2396,VALID,0,VALID,23.2364,VALID,216,VALID,0.307813,
2009-07-01, 02:33:04,VALID,1004.38,VALID,0,VALID,94.2701,VALID,0,VALID,23.2364,VALID,216,VALID,0.199219,
2009-07-01, 02:34:04,VALID,1004.4,VALID,0,VALID,94.2777,VALID,0,VALID,23.1957,VALID,141,VALID,0.230469,
2009-07-01, 02:35:04,VALID,1004.37,VALID,0,VALID,94.3006,VALID,0,VALID,23.1957,VALID,141,VALID,0.19375,
2009-07-01, 02:36:04,VALID,1004.34,VALID,0,VALID,94.3235,VALID,0,VALID,23.1763,VALID,141,VALID,0.160156,
2009-07-01, 02:37:04,VALID,1004.31,VALID,0,VALID,94.3464,VALID,0,VALID,23.1763,VALID,141,VALID,0,
2009-07-01, 02:38:04,VALID,1004.32,VALID,0,VALID,94.4227,VALID,0,VALID,23.1975,VALID,141,VALID,0,
2009-07-01, 02:39:04,VALID,1004.28,VALID,0,VALID,94.4608,VALID,0,VALID,23.217,VALID,141,VALID,0,
2009-07-01, 02:40:04,VALID,1004.24,VALID,0,VALID,94.5142,VALID,0,VALID,23.2152,VALID,141,VALID,0,
2009-07-01, 02:41:04,VALID,1004.24,VALID,0,VALID,94.5676,VALID,0,VALID,23.2559,VALID,141,VALID,0,
2009-07-01, 02:42:04,VALID,1004.2,VALID,0,VALID,94.5523,VALID,0,VALID,23.2347,VALID,141,VALID,0,
2009-07-01, 02:43:04,VALID,1004.16,VALID,0,VALID,94.56,VALID,0,VALID,23.1957,VALID,141,VALID,0,
2009-07-01, 02:44:04,VALID,1004.16,VALID,0,VALID,94.5295,VALID,0,VALID,23.1586,VALID,141,VALID,0,
2009-07-01, 02:45:04,VALID,1004.11,VALID,0,VALID,94.5371,VALID,0,VALID,23.1586,VALID,141,VALID,0,
2009-07-01, 02:46:04,VALID,1004.09,VALID,0,VALID,94.5295,VALID,0,VALID,23.1374,VALID,141,VALID,0,
2009-07-01, 02:47:04,VALID,1004.07,VALID,0,VALID,94.56,VALID,0,VALID,23.1179,VALID,141,VALID,0,
2009-07-01, 02:48:04,VALID,1004.06,VALID,0,VALID,94.5905,VALID,0,VALID,23.1391,VALID,141,VALID,0,
2009-07-01, 02:49:04,VALID,1004.08,VALID,0,VALID,94.6134,VALID,0,VALID,23.1391,VALID,141,VALID,0,
2009-07-01, 02:50:04,VALID,1004.07,VALID,0,VALID,94.6973,VALID,0.100563,VALID,23.1957,VALID,140,VALID,0,
2009-07-01, 02:51:04,VALID,1004.03,VALID,0,VALID,94.7431,VALID,0,VALID,23.217,VALID,137,VALID,0,
2009-07-01, 02:52:04,VALID,1004.05,VALID,0,VALID,94.7354,VALID,0,VALID,23.1957,VALID,137,VALID,0,
2009-07-01, 02:53:04,VALID,1004.06,VALID,0,VALID,94.7202,VALID,0,VALID,23.1763,VALID,137,VALID,0,
2009-07-01, 02:54:04,VALID,1004.04,VALID,0,VALID,94.7278,VALID,0,VALID,23.1763,VALID,137,VALID,0,
2009-07-01, 02:55:04,VALID,1004.02,VALID,0,VALID,94.7583,VALID,0,VALID,23.2152,VALID,48,VALID,0.332812,
2009-07-01, 02:56:04,VALID,1004,VALID,0,VALID,94.8346,VALID,0,VALID,23.3337,VALID,48,VALID,0.389453,
2009-07-01, 02:57:04,VALID,1003.98,VALID,0,VALID,94.8804,VALID,0,VALID,23.4098,VALID,48,VALID,0.410937,
2009-07-01, 02:58:04,VALID,1003.96,VALID,0,VALID,94.949,VALID,0,VALID,23.4877,VALID,46,VALID,0.506641,
2009-07-01, 02:59:04,VALID,1003.93,VALID,0,VALID,94.9796,VALID,0,VALID,23.5266,VALID,34,VALID,0.441406,
2009-07-01, 03:00:04,VALID,1003.97,VALID,0,VALID,95.0024,VALID,0,VALID,23.6628,VALID,334,VALID,0.638281,
2009-07-01, 03:01:04,VALID,1003.94,VALID,0,VALID,95.0864,VALID,0,VALID,23.8203,VALID,357,VALID,0.758203,
2009-07-01, 03:02:04,VALID,1003.93,VALID,0,VALID,95.094,VALID,0,VALID,23.9177,VALID,348,VALID,0.648047,
2009-07-01, 03:03:04,VALID,1003.9,VALID,0,VALID,95.094,VALID,0,VALID,24.0132,VALID,359,VALID,1.06367,
2009-07-01, 03:04:04,VALID,1003.88,VALID,0,VALID,95.0864,VALID,0,VALID,24.091,VALID,354,VALID,0.8125,
2009-07-01, 03:05:04,VALID,1003.89,VALID,0,VALID,95.0711,VALID,0,VALID,24.1902,VALID,354,VALID,0.755469,
2009-07-01, 03:06:04,VALID,1003.87,VALID,0,VALID,95.033,VALID,0,VALID,24.2273,VALID,352,VALID,0.649219,
2009-07-01, 03:07:04,VALID,1003.9,VALID,0,VALID,94.9643,VALID,0,VALID,24.2857,VALID,350,VALID,0.765625,
2009-07-01, 03:08:04,VALID,1003.86,VALID,0,VALID,94.8956,VALID,0,VALID,24.3441,VALID,345,VALID,0.384766,
2009-07-01, 03:09:04,VALID,1003.87,VALID,0,VALID,94.7431,VALID,0,VALID,24.383,VALID,357,VALID,0.505469,
2009-07-01, 03:10:04,VALID,1003.87,VALID,0,VALID,94.5523,VALID,0,VALID,24.3849,VALID,331,VALID,0.393359,
2009-07-01, 03:11:04,VALID,1003.9,VALID,0,VALID,94.3235,VALID,0,VALID,24.3849,VALID,345,VALID,0.125781,
2009-07-01, 03:12:04,VALID,1003.9,VALID,0,VALID,94.0336,VALID,0,VALID,24.3246,VALID,349,VALID,0.602734,
2009-07-01, 03:13:04,VALID,1003.94,VALID,0,VALID,93.5987,VALID,0,VALID,24.2857,VALID,349,VALID,0.183203,
2009-07-01, 03:14:04,VALID,1003.93,VALID,0,VALID,93.4767,VALID,0,VALID,24.2875,VALID,349,VALID,0,
2009-07-01, 03:15:04,VALID,1003.97,VALID,0,VALID,93.4233,VALID,0,VALID,24.2078,VALID,349,VALID,0.320703,
2009-07-01, 03:16:04,VALID,1003.98,VALID,0,VALID,93.3622,VALID,0,VALID,24.1689,VALID,349,VALID,0.0046875,
2009-07-01, 03:17:04,VALID,1003.99,VALID,0,VALID,93.3012,VALID,0,VALID,24.1707,VALID,349,VALID,0.00546875,
2009-07-01, 03:18:04,VALID,1004,VALID,0,VALID,93.2783,VALID,0,VALID,24.13,VALID,349,VALID,0.157422,
2009-07-01, 03:19:04,VALID,1003.99,VALID,0,VALID,93.2554,VALID,0,VALID,24.0929,VALID,349,VALID,0.155469,
2009-07-01, 03:20:04,VALID,1004.01,VALID,0,VALID,93.3012,VALID,0,VALID,24.0734,VALID,349,VALID,0.287891,
2009-07-01, 03:21:04,VALID,1004.02,VALID,0,VALID,93.3317,VALID,0,VALID,24.0539,VALID,349,VALID,0.326172,
2009-07-01, 03:22:04,VALID,1004.04,VALID,0,VALID,93.347,VALID,0,VALID,24.0557,VALID,349,VALID,0.225781,
2009-07-01, 03:23:04,VALID,1004.06,VALID,0,VALID,93.3546,VALID,0,VALID,23.9955,VALID,349,VALID,0.277344,
2009-07-01, 03:24:04,VALID,1004.1,VALID,0,VALID,93.3775,VALID,0,VALID,23.9761,VALID,349,VALID,0.218359,
2009-07-01, 03:25:04,VALID,1004.11,VALID,0,VALID,93.3317,VALID,0,VALID,23.9159,VALID,349,VALID,0.123047,
2009-07-01, 03:26:04,VALID,1004.13,VALID,0,VALID,93.2936,VALID,0,VALID,23.9195,VALID,349,VALID,0.183203,
2009-07-01, 03:27:04,VALID,1004.12,VALID,0,VALID,93.2249,VALID,0,VALID,23.8203,VALID,24,VALID,0.421484,
2009-07-01, 03:28:04,VALID,1004.09,VALID,0,VALID,93.3088,VALID,0,VALID,23.7601,VALID,38,VALID,0,
2009-07-01, 03:29:04,VALID,1004.07,VALID,0,VALID,93.2783,VALID,0,VALID,23.7637,VALID,38,VALID,0.277734,
2009-07-01, 03:30:04,VALID,1004.05,VALID,0,VALID,93.1715,VALID,0,VALID,23.6859,VALID,38,VALID,0.291016,
2009-07-01, 03:31:04,VALID,1004.05,VALID,0,VALID,93.1868,VALID,0,VALID,23.5868,VALID,38,VALID,0.214453,
2009-07-01, 03:32:04,VALID,1004.01,VALID,0,VALID,93.2249,VALID,0,VALID,23.5478,VALID,38,VALID,0.0117188,
2009-07-01, 03:33:04,VALID,1003.98,VALID,0,VALID,93.2249,VALID,0,VALID,23.5089,VALID,38,VALID,0,
2009-07-01, 03:34:04,VALID,1003.97,VALID,0,VALID,93.3394,VALID,0,VALID,23.4487,VALID,38,VALID,0,
2009-07-01, 03:35:04,VALID,1003.97,VALID,0,VALID,93.5148,VALID,0,VALID,23.4894,VALID,38,VALID,0,
2009-07-01, 03:36:04,VALID,1003.94,VALID,0,VALID,93.5987,VALID,0,VALID,23.4894,VALID,38,VALID,0,
2009-07-01, 03:37:04,VALID,1003.94,VALID,0,VALID,93.614,VALID,0,VALID,23.47,VALID,38,VALID,0,
2009-07-01, 03:38:04,VALID,1003.92,VALID,0,VALID,93.5835,VALID,0,VALID,23.4311,VALID,38,VALID,0,
2009-07-01, 03:39:04,VALID,1003.87,VALID,0,VALID,93.5758,VALID,0,VALID,23.3727,VALID,38,VALID,0,
2009-07-01, 03:40:04,VALID,1003.9,VALID,0,VALID,93.6064,VALID,0,VALID,23.3532,VALID,38,VALID,0,
2009-07-01, 03:41:04,VALID,1003.88,VALID,0,VALID,93.7284,VALID,0,VALID,23.3337,VALID,38,VALID,0,
2009-07-01, 03:42:04,VALID,1003.86,VALID,0,VALID,93.7895,VALID,0,VALID,23.3337,VALID,38,VALID,0,
2009-07-01, 03:43:04,VALID,1003.83,VALID,0,VALID,93.8429,VALID,0,VALID,23.3337,VALID,38,VALID,0,
2009-07-01, 03:44:04,VALID,1003.86,VALID,0,VALID,94.0259,VALID,0,VALID,23.3337,VALID,22,VALID,0.473828,
2009-07-01, 03:45:04,VALID,1003.82,VALID,0,VALID,94.2243,VALID,0,VALID,23.3921,VALID,345,VALID,0.336719,
2009-07-01, 03:46:04,VALID,1003.81,VALID,0,VALID,94.2777,VALID,0,VALID,23.4098,VALID,344,VALID,0,
2009-07-01, 03:47:04,VALID,1003.79,VALID,0,VALID,94.2624,VALID,0,VALID,23.4116,VALID,344,VALID,0,
2009-07-01, 03:48:04,VALID,1003.77,VALID,0,VALID,94.2472,VALID,0,VALID,23.3904,VALID,344,VALID,0.264062,
2009-07-01, 03:49:04,VALID,1003.76,VALID,0,VALID,94.2701,VALID,0,VALID,23.4116,VALID,344,VALID,0.00546875,
2009-07-01, 03:50:04,VALID,1003.76,VALID,0,VALID,94.3158,VALID,0,VALID,23.3921,VALID,344,VALID,0,